Theta_e
315 315 315 315 315 316 316 315 314 314 313 313 312 313 313 309 307 302 298 305 306 311 305 299 298 298 298 294 295 294 289 287 286 284 287 289 288 292 294 291 293 294 294 293 295
314 314 314 314 315 315 315 314 314 314 313 312 311 312 311 311 300 297 305 310 309 308 298 296 293 296 294 292 293 292 289 287 287 288 287 289 289 290 289 290 291 293 295 294 293
314 314 314 314 314 314 315 314 314 312 312 312 311 311 310 310 295 294 307 308 307 302 299 297 295 294 291 292 290 289 288 287 288 289 290 289 289 291 289 287 289 288 289 291 292
314 314 314 314 314 314 314 314 313 313 311 312 311 311 309 306 288 297 307 306 304 300 298 295 293 291 289 288 289 286 288 288 289 289 288 287 290 288 289 288 287 288 289 289 290
314 314 314 313 314 314 314 314 314 313 311 311 311 312 304 293 292 301 303 302 300 298 294 293 291 290 288 288 288 287 287 288 289 289 289 289 287 287 288 287 288 287 288 287 288
314 314 313 313 313 314 314 314 313 313 312 311 311 310 298 289 299 299 299 299 298 298 295 294 291 292 289 287 287 288 288 287 288 288 288 285 286 286 287 286 286 285 285 286 286
314 314 313 313 313 313 313 313 311 311 312 310 311 300 293 292 299 300 299 297 298 297 295 296 295 291 290 287 289 287 284 286 286 286 285 286 283 283 285 284 285 285 285 285 286
314 314 313 313 313 313 313 311 311 311 310 309 309 298 291 298 300 298 298 297 299 299 298 298 297 293 290 289 286 284 284 282 286 285 285 284 279 285 284 284 283 283 284 283 284
315 315 314 313 313 313 313 308 310 310 308 306 300 296 289 301 294 296 298 295 296 297 298 297 295 289 289 286 285 284 281 282 282 284 284 282 280 284 284 282 282 282 282 282 282
315 315 314 313 313 312 308 305 305 305 302 296 294 291 291 290 294 295 297 296 293 294 292 292 290 287 288 287 281 280 280 281 281 284 283 281 280 284 285 281 281 281 282 281 281
316 315 314 313 312 308 301 299 295 294 294 291 289 289 290 293 296 293 295 293 292 290 286 288 286 284 283 284 283 282 280 280 283 284 280 280 280 282 284 281 280 280 279 279 279
316 315 313 312 310 304 300 295 293 294 288 291 290 291 292 293 289 291 295 289 288 285 286 285 283 284 285 284 282 282 281 281 282 283 281 279 279 282 282 281 279 278 278 277 278
315 314 313 311 305 300 295 294 298 298 289 288 290 289 290 292 288 289 291 288 286 284 284 283 283 285 283 282 281 282 280 280 277 280 280 278 278 275 280 280 279 280 278 277 276
316 314 311 309 302 298 293 297 300 299 288 285 286 289 291 291 287 291 291 289 285 283 283 284 285 283 282 281 280 278 282 279 277 275 275 276 273 277 277 277 278 278 277 276 276
316 313 308 304 299 296 295 299 300 296 283 285 285 293 290 287 287 288 291 288 284 284 283 283 282 281 280 281 281 281 281 278 276 274 273 275 272 277 275 275 276 276 275 275 276
315 313 307 302 300 298 300 300 297 289 283 282 285 284 285 286 286 287 287 289 287 283 283 283 284 283 282 282 281 281 279 277 274 275 270 273 273 276 275 273 274 275 274 274 275
315 311 304 301 296 299 299 295 287 284 286 284 281 284 283 283 283 284 283 282 282 282 281 280 280 282 282 280 281 280 278 277 275 273 274 274 272 276 274 273 273 271 271 272 275
313 306 300 299 299 299 297 292 284 287 286 283 283 283 281 282 282 282 281 281 281 280 280 280 281 279 280 279 276 276 275 274 269 272 272 273 270 277 272 274 273 272 271 274 274
306 302 299 298 300 299 295 285 287 287 282 281 282 281 283 281 281 281 281 281 282 281 282 279 280 280 279 279 279 276 275 275 270 268 267 273 275 274 274 275 276 271 273 272 273
302 298 293 297 298 297 288 287 287 284 284 285 283 283 283 281 280 279 280 282 281 281 281 278 279 279 278 280 279 278 279 273 272 268 270 274 272 275 272 272 273 270 271 272 273
301 291 294 296 297 291 285 285 283 284 285 285 283 283 282 282 280 280 281 281 282 280 281 278 277 277 278 276 277 276 275 273 273 272 270 269 275 274 271 270 269 270 271 271 272
298 286 295 295 287 285 284 284 284 282 284 284 283 283 282 281 282 279 280 281 284 283 279 280 278 278 276 273 275 276 275 275 273 270 271 269 272 274 271 270 269 270 270 271 272
289 287 296 296 284 284 284 282 282 281 282 284 282 283 280 281 278 278 281 282 283 282 280 280 279 279 277 274 276 274 274 273 272 271 270 270 278 272 270 269 269 268 269 270 271
293 285 286 288 287 285 283 284 283 284 283 285 283 282 279 280 278 277 279 281 283 283 284 283 277 277 280 279 274 272 272 273 273 271 272 272 275 275 274 269 268 268 268 269 269
293 286 287 285 285 284 284 285 282 282 283 284 282 281 282 279 276 275 279 280 282 285 282 280 275 271 273 268 268 271 271 272 270 271 273 273 267 274 273 268 267 266 267 268 268
291 289 287 286 285 283 284 284 284 285 284 281 281 282 282 278 280 279 279 280 280 282 280 278 276 271 271 265 265 269 272 271 271 270 267 268 268 275 268 265 266 266 266 266 267
292 293 292 287 285 283 284 285 286 286 286 284 283 281 279 281 282 282 282 281 282 281 279 277 276 273 277 269 270 273 271 269 271 270 273 273 280 270 272 272 270 269 267 266 267
Wind_Speed
12 12 13 13 14 15 15 13 12 9 8 7 5 3 6 6 4 5 7 7 10 12 7 3 3 3 2 4 3 1 4 5 3 3 1 1 4 1 4 12 9 8 11 9 14
12 12 12 13 13 14 15 13 11 8 7 6 3 2 2 3 2 10 4 12 13 7 2 4 3 3 4 3 2 3 3 1 1 2 6 8 9 11 9 14 15 14 7 14 15
11 12 12 13 12 13 13 12 10 7 7 5 3 1 1 2 1 4 8 11 7 3 2 2 3 2 3 1 2 1 2 2 3 4 5 8 12 12 13 14 5 10 14 18 15
11 12 12 13 12 12 12 11 10 7 5 5 3 2 0 1 1 2 9 6 5 2 2 3 2 3 3 2 1 4 2 3 2 2 6 12 10 9 11 7 4 7 10 13 16
10 11 12 13 13 12 12 11 9 7 6 5 1 2 2 2 2 3 6 5 6 4 4 2 2 2 4 3 2 3 0 4 7 11 10 6 10 11 12 3 4 7 9 12 14
11 11 12 14 14 14 14 11 9 7 6 4 3 2 3 3 3 4 3 2 6 4 5 3 2 1 5 2 1 0 8 11 8 6 4 7 10 6 3 3 5 7 9 12 14
10 12 13 14 15 15 15 14 10 5 4 4 2 2 1 3 3 4 3 2 2 2 3 2 1 3 3 3 2 2 6 7 2 2 3 7 13 9 1 3 7 10 12 13 14
9 10 12 14 15 16 16 14 7 3 4 2 1 1 2 1 3 4 1 2 2 3 3 2 2 4 2 2 2 3 2 8 4 4 1 3 13 2 2 5 8 10 11 13 15
8 9 11 14 15 17 15 10 3 4 3 1 2 2 2 3 3 3 2 1 2 2 3 3 1 2 2 2 2 3 10 14 10 2 5 7 15 2 3 3 7 8 11 12 14
9 9 11 13 14 16 14 2 3 4 3 2 1 2 2 3 3 3 2 2 1 3 2 1 1 3 1 5 5 8 10 10 16 6 10 18 23 17 7 6 4 8 10 11 12
9 10 12 13 15 13 5 2 2 2 0 2 1 1 4 2 1 3 1 3 2 2 3 2 5 4 0 1 1 6 10 20 17 11 10 17 19 18 9 8 5 6 10 12 13
7 10 13 14 13 9 2 4 2 2 5 1 1 2 1 2 3 2 1 4 3 4 2 4 6 4 1 2 5 7 16 13 9 9 14 17 23 15 9 8 2 8 11 12 14
7 7 10 14 3 5 4 2 1 2 4 1 2 2 1 3 2 2 1 2 2 4 4 5 3 3 1 3 5 7 10 9 18 22 10 11 11 3 7 7 5 7 9 10 12
8 6 7 14 0 1 3 2 2 1 3 3 2 1 1 2 2 1 2 0 2 3 2 6 3 2 5 2 2 6 3 13 17 8 5 2 7 4 6 7 7 10 12 12 13
9 6 2 7 1 2 3 2 1 3 5 3 2 1 1 2 2 2 1 2 3 3 3 2 2 2 3 2 1 7 14 13 4 5 6 6 5 3 3 7 4 12 12 12 12
9 7 4 2 2 2 2 1 1 1 7 2 2 2 1 1 1 1 2 3 2 2 3 3 0 2 2 2 2 11 6 3 1 3 5 5 3 5 3 2 7 11 13 13 14
6 8 2 1 2 2 1 1 2 4 1 0 1 1 1 1 1 0 0 2 3 2 2 2 2 2 2 4 3 9 8 4 3 3 4 4 6 9 5 4 5 11 13 11 12
10 11 7 4 4 4 1 3 5 1 2 0 1 1 3 1 2 1 1 4 3 2 1 2 3 2 2 3 2 7 4 3 8 6 8 2 7 2 1 4 5 7 8 8 11
12 3 3 4 5 3 3 2 4 2 1 1 2 1 3 2 2 3 4 3 3 5 3 2 3 3 3 2 3 5 2 2 5 2 5 4 4 6 2 5 9 9 9 10 12
3 3 3 7 5 3 2 6 3 1 1 3 3 1 3 3 3 2 5 3 5 1 2 3 4 1 3 2 5 3 7 2 3 6 8 5 6 5 2 11 15 11 10 10 11
3 3 2 4 2 3 3 4 1 2 3 3 3 2 6 3 3 3 3 3 3 5 3 4 2 3 2 4 3 4 4 3 2 3 5 8 1 3 3 9 13 11 9 9 10
2 1 3 3 1 0 2 1 2 1 2 4 3 0 3 2 2 4 3 1 6 7 4 4 1 4 0 1 2 1 3 3 3 3 4 5 8 4 3 5 8 10 7 7 7
2 2 1 2 1 2 1 2 4 3 5 2 4 4 1 3 3 3 2 2 6 5 3 6 3 4 3 3 2 5 5 4 4 2 6 4 4 3 3 4 6 7 6 6 6
2 2 1 2 1 1 2 3 2 3 5 3 2 3 1 3 3 3 2 3 4 2 4 5 3 5 4 2 2 4 6 9 5 4 2 10 11 4 5 7 6 6 6 7 6
1 1 0 1 2 3 1 2 2 3 4 3 3 8 5 4 2 5 3 3 3 6 3 2 4 2 5 2 3 4 5 11 12 4 7 3 6 14 7 5 4 5 6 5 5
1 2 0 2 2 4 5 3 3 2 4 4 6 3 7 5 2 2 5 5 4 7 5 3 2 1 4 1 3 7 9 11 14 5 13 11 14 5 1 3 4 3 3 3 3
0 1 0 4 3 2 2 3 2 1 4 2 5 3 6 6 7 3 1 2 2 6 9 5 3 2 4 1 5 7 7 13 6 7 6 5 1 4 4 3 3 3 3 1 2
Wind_Direction
13 12 11 10 4 1 1 2 12 17 26 31 42 57 115 72 51 43 46 346 329 333 340 332 40 82 94 81 46 264 210 239 241 212 17 136 312 321 297 283 289 280 307 340 333
7 6 5 5 4 1 356 2 4 5 15 16 32 96 120 33 84 54 348 341 331 356 0 32 66 62 81 79 48 243 239 264 91 232 271 285 287 302 288 281 279 276 278 338 340
360 2 357 1 358 357 356 358 356 351 352 10 19 44 348 304 213 13 345 346 353 359 83 79 88 60 82 58 44 137 276 131 227 251 290 290 282 285 278 281 319 310 316 326 329
359 357 352 351 352 350 350 348 347 342 331 340 340 349 33 227 324 359 355 5 15 45 58 63 94 102 111 153 103 249 236 249 322 261 302 291 301 263 267 295 308 305 316 316 321
357 352 346 344 343 342 341 339 335 329 312 309 322 330 218 125 103 21 4 10 46 48 49 59 79 137 135 161 201 242 311 270 265 288 290 270 254 270 266 293 308 323 318 322 319
348 347 342 339 338 337 335 331 321 307 289 289 299 149 225 236 104 18 3 22 50 64 62 42 91 161 114 146 249 234 294 291 293 282 282 278 281 278 153 321 312 321 326 323 317
342 342 339 337 336 335 333 328 315 278 239 271 312 202 190 113 108 49 60 56 34 54 94 55 72 239 146 138 115 302 293 301 260 188 261 302 261 231 101 304 312 323 323 319 316
333 334 333 333 334 332 331 334 326 164 175 221 2 185 148 111 148 37 68 86 66 59 73 74 61 77 348 89 131 275 243 336 80 275 271 296 290 165 208 321 318 319 319 319 319
320 325 331 333 332 330 330 332 19 124 130 76 190 235 170 143 169 94 22 174 95 73 64 76 38 16 232 342 173 65 320 321 329 193 285 240 293 82 226 271 300 319 319 320 319
311 321 330 333 335 336 334 300 46 109 80 106 88 178 177 192 132 105 74 92 129 141 192 193 212 241 237 2 343 318 319 311 307 330 266 271 273 275 232 243 283 317 324 324 324
309 320 329 335 338 348 356 131 208 193 120 258 109 70 129 98 190 58 28 151 159 198 234 62 247 255 263 119 292 286 291 300 303 336 280 267 278 287 247 226 253 325 333 333 329
301 319 329 334 337 4 25 55 57 329 294 213 141 79 92 174 155 65 173 199 212 232 187 214 241 116 148 235 274 294 303 307 313 271 292 280 286 284 225 228 255 331 340 332 327
288 311 328 332 348 47 71 62 316 175 260 204 220 168 174 176 177 103 177 143 225 217 214 255 78 129 294 303 303 299 285 311 305 323 275 293 270 227 198 199 219 330 337 331 332
275 296 339 334 203 308 64 38 186 242 292 167 202 119 104 133 201 45 33 255 177 271 211 260 108 203 265 275 353 308 98 317 320 319 317 353 297 230 183 208 222 343 340 339 337
249 250 25 37 343 1 28 94 142 246 304 102 137 75 83 223 97 150 44 157 227 187 174 74 191 216 268 140 214 261 322 308 292 258 311 175 257 150 190 218 311 346 344 338 337
246 199 164 114 95 37 15 127 165 320 249 122 126 175 220 126 135 315 128 59 26 198 214 280 219 248 300 284 232 306 310 277 196 251 245 165 266 264 203 218 317 344 344 341 332
284 130 53 22 88 347 234 46 13 233 77 11 290 243 264 207 203 282 116 178 247 259 215 189 174 131 316 271 161 17 333 324 261 244 312 168 253 281 175 210 300 331 331 333 333
132 111 63 37 349 334 302 62 232 94 240 87 143 189 256 61 209 194 206 220 189 207 129 300 238 198 7 29 30 58 4 30 299 317 318 285 240 332 106 247 270 313 307 338 342
122 78 70 5 353 346 98 158 241 222 339 313 224 180 241 206 260 236 222 233 153 187 230 200 235 118 57 126 281 115 67 78 265 191 269 244 256 144 201 310 322 345 342 356 346
96 86 48 327 343 51 90 232 225 72 46 58 264 238 280 180 207 224 192 143 158 149 164 116 273 152 130 168 60 32 136 195 160 307 295 279 280 312 342 331 319 342 348 353 343
83 80 339 333 312 74 231 228 326 73 201 200 250 229 256 273 210 240 221 136 169 136 104 143 260 127 172 201 157 158 160 135 247 246 297 310 5 65 35 318 308 328 344 353 340
81 68 334 321 81 77 237 290 44 346 292 268 252 144 259 280 255 243 242 255 150 155 154 162 263 259 71 7 326 19 168 164 212 152 238 285 281 142 95 315 299 323 336 352 332
90 105 321 360 244 228 135 230 220 183 224 250 215 216 161 223 239 228 236 71 151 174 164 162 198 285 189 186 175 226 176 153 105 110 224 271 315 187 207 324 309 320 343 330 308
146 126 43 61 91 268 228 219 233 200 251 173 203 154 242 226 212 295 244 142 176 168 136 151 260 255 259 321 42 202 187 186 185 213 165 237 297 285 350 351 338 338 346 307 328
9 232 206 155 225 214 195 304 210 247 228 216 233 219 206 237 223 230 206 154 174 171 110 187 256 231 272 284 251 265 206 192 201 190 236 19 260 306 336 313 312 314 311 318 346
146 164 72 109 131 173 197 222 227 211 180 220 234 161 215 235 239 346 175 206 193 175 190 138 255 276 267 132 223 269 227 214 228 233 264 287 283 213 113 237 243 236 293 323 352
109 35 51 151 159 177 221 243 280 142 197 244 226 176 198 249 296 281 188 360 205 172 189 173 199 268 268 279 275 273 216 187 179 199 189 206 183 174 178 165 220 178 190 232 299